![]() |
EMODnet Physics ERDDAP
Easier access to scientific data |
log in|
Brought to you by EMODnet Physics |
| Dataset Title: | NDBC - Collection of dew point temperature (DEWT) TimeSeries - IN SITU MultiPointTimeSeriesObservation
|
| Institution: | NDBC (Dataset ID: TS_DEWT_NDBC) |
| Information: | Summary
| License
| FGDC
| ISO 19115
| Metadata
| Background
| Subset
| Data Access Form
| Make a graph
|
| Name | Last modified | Size | Description | |
|---|---|---|---|---|
| Parent Directory | - | - | ||
| SISW1_TS_DEWT_012019.nc | 19-Jan-2026 17:59 | 917264 | ||
| SISW1_TS_DEWT_012020.nc | 19-Jan-2026 18:05 | 917462 | ||
| SISW1_TS_DEWT_012021.nc | 19-Jan-2026 18:11 | 915690 | ||
| SISW1_TS_DEWT_012022.nc | 19-Jan-2026 18:15 | 422660 | ||
| SISW1_TS_DEWT_012023.nc | 19-Jan-2026 18:21 | 421100 | ||
| SISW1_TS_DEWT_012024.nc | 19-Jan-2026 18:27 | 993621 | ||
| SISW1_TS_DEWT_012025.nc | 19-Jan-2026 18:32 | 1143736 | ||
| SISW1_TS_DEWT_012026.nc | 02-Feb-2026 15:23 | 1143863 | ||
| SISW1_TS_DEWT_022019.nc | 19-Jan-2026 18:00 | 1143710 | ||
| SISW1_TS_DEWT_022020.nc | 19-Jan-2026 18:06 | 1143813 | ||
| SISW1_TS_DEWT_022021.nc | 19-Jan-2026 18:12 | 1143538 | ||
| SISW1_TS_DEWT_022022.nc | 19-Jan-2026 18:15 | 1143521 | ||
| SISW1_TS_DEWT_022023.nc | 19-Jan-2026 18:21 | 1143729 | ||
| SISW1_TS_DEWT_022024.nc | 19-Jan-2026 18:27 | 1143799 | ||
| SISW1_TS_DEWT_022025.nc | 19-Jan-2026 18:32 | 993030 | ||
| SISW1_TS_DEWT_022026.nc | 01-Mar-2026 16:56 | 995606 | ||
| SISW1_TS_DEWT_032019.nc | 19-Jan-2026 18:00 | 589068 | ||
| SISW1_TS_DEWT_032020.nc | 19-Jan-2026 18:07 | 419856 | ||
| SISW1_TS_DEWT_032021.nc | 19-Jan-2026 18:12 | 994304 | ||
| SISW1_TS_DEWT_032022.nc | 19-Jan-2026 18:16 | 995378 | ||
| SISW1_TS_DEWT_032023.nc | 19-Jan-2026 18:22 | 995368 | ||
| SISW1_TS_DEWT_032024.nc | 19-Jan-2026 18:28 | 993542 | ||
| SISW1_TS_DEWT_032025.nc | 19-Jan-2026 18:33 | 993894 | ||
| SISW1_TS_DEWT_032026.nc | 26-Mar-2026 18:07 | 995133 | ||
| SISW1_TS_DEWT_042018.nc | 19-Jan-2026 17:55 | 995073 | ||
| SISW1_TS_DEWT_042019.nc | 19-Jan-2026 18:01 | 995165 | ||
| SISW1_TS_DEWT_042020.nc | 19-Jan-2026 18:07 | 994985 | ||
| SISW1_TS_DEWT_042021.nc | 19-Jan-2026 18:13 | 995467 | ||
| SISW1_TS_DEWT_042022.nc | 19-Jan-2026 18:16 | 994646 | ||
| SISW1_TS_DEWT_042023.nc | 19-Jan-2026 18:23 | 426482 | ||
| SISW1_TS_DEWT_042024.nc | 19-Jan-2026 18:28 | 1142684 | ||
| SISW1_TS_DEWT_042025.nc | 19-Jan-2026 18:33 | 996061 | ||
| SISW1_TS_DEWT_052018.nc | 19-Jan-2026 17:55 | 1142997 | ||
| SISW1_TS_DEWT_052019.nc | 19-Jan-2026 18:01 | 1143783 | ||
| SISW1_TS_DEWT_052020.nc | 19-Jan-2026 18:07 | 1143720 | ||
| SISW1_TS_DEWT_052021.nc | 19-Jan-2026 18:13 | 995510 | ||
| SISW1_TS_DEWT_052022.nc | 19-Jan-2026 18:17 | 1143432 | ||
| SISW1_TS_DEWT_052023.nc | 19-Jan-2026 18:23 | 1143798 | ||
| SISW1_TS_DEWT_052024.nc | 19-Jan-2026 18:28 | 996117 | ||
| SISW1_TS_DEWT_052025.nc | 19-Jan-2026 18:33 | 1143519 | ||
| SISW1_TS_DEWT_062018.nc | 19-Jan-2026 17:56 | 1143516 | ||
| SISW1_TS_DEWT_062019.nc | 19-Jan-2026 18:02 | 995929 | ||
| SISW1_TS_DEWT_062020.nc | 19-Jan-2026 18:08 | 995421 | ||
| SISW1_TS_DEWT_062021.nc | 19-Jan-2026 18:13 | 603022 | ||
| SISW1_TS_DEWT_062022.nc | 19-Jan-2026 18:17 | 995478 | ||
| SISW1_TS_DEWT_062023.nc | 19-Jan-2026 18:23 | 994534 | ||
| SISW1_TS_DEWT_062024.nc | 19-Jan-2026 18:29 | 994037 | ||
| SISW1_TS_DEWT_062025.nc | 19-Jan-2026 18:34 | 994019 | ||
| SISW1_TS_DEWT_072018.nc | 19-Jan-2026 17:56 | 993862 | ||
| SISW1_TS_DEWT_072019.nc | 19-Jan-2026 18:02 | 994009 | ||
| SISW1_TS_DEWT_072020.nc | 19-Jan-2026 18:08 | 995311 | ||
| SISW1_TS_DEWT_072021.nc | 19-Jan-2026 18:14 | 995006 | ||
| SISW1_TS_DEWT_072022.nc | 19-Jan-2026 18:18 | 994604 | ||
| SISW1_TS_DEWT_072023.nc | 19-Jan-2026 18:24 | 438738 | ||
| SISW1_TS_DEWT_072024.nc | 19-Jan-2026 18:29 | 917788 | ||
| SISW1_TS_DEWT_072025.nc | 19-Jan-2026 18:34 | 1143846 | ||
| SISW1_TS_DEWT_082019.nc | 19-Jan-2026 18:02 | 993358 | ||
| SISW1_TS_DEWT_082020.nc | 19-Jan-2026 18:09 | 1143886 | ||
| SISW1_TS_DEWT_082022.nc | 19-Jan-2026 18:18 | 1143851 | ||
| SISW1_TS_DEWT_082023.nc | 19-Jan-2026 18:24 | 1143817 | ||
| SISW1_TS_DEWT_082024.nc | 19-Jan-2026 18:30 | 1142641 | ||
| SISW1_TS_DEWT_082025.nc | 19-Jan-2026 18:35 | 1143854 | ||
| SISW1_TS_DEWT_092018.nc | 19-Jan-2026 17:57 | 1143221 | ||
| SISW1_TS_DEWT_092019.nc | 19-Jan-2026 18:02 | 1143581 | ||
| SISW1_TS_DEWT_092020.nc | 19-Jan-2026 18:09 | 995853 | ||
| SISW1_TS_DEWT_092022.nc | 19-Jan-2026 18:18 | 994156 | ||
| SISW1_TS_DEWT_092023.nc | 19-Jan-2026 18:25 | 595266 | ||
| SISW1_TS_DEWT_092024.nc | 19-Jan-2026 18:30 | 588388 | ||
| SISW1_TS_DEWT_092025.nc | 19-Jan-2026 18:35 | 916817 | ||
| SISW1_TS_DEWT_102018.nc | 19-Jan-2026 17:58 | 599831 | ||
| SISW1_TS_DEWT_102019.nc | 19-Jan-2026 18:03 | 1143646 | ||
| SISW1_TS_DEWT_102020.nc | 19-Jan-2026 18:10 | 919062 | ||
| SISW1_TS_DEWT_102022.nc | 19-Jan-2026 18:19 | 994799 | ||
| SISW1_TS_DEWT_102023.nc | 19-Jan-2026 18:25 | 1143851 | ||
| SISW1_TS_DEWT_102024.nc | 19-Jan-2026 18:30 | 1143889 | ||
| SISW1_TS_DEWT_102025.nc | 19-Jan-2026 18:36 | 1143516 | ||
| SISW1_TS_DEWT_112018.nc | 19-Jan-2026 17:58 | 1142963 | ||
| SISW1_TS_DEWT_112019.nc | 19-Jan-2026 18:04 | 996052 | ||
| SISW1_TS_DEWT_112020.nc | 19-Jan-2026 18:10 | 1143868 | ||
| SISW1_TS_DEWT_112022.nc | 19-Jan-2026 18:19 | 1143804 | ||
| SISW1_TS_DEWT_112023.nc | 19-Jan-2026 18:26 | 995164 | ||
| SISW1_TS_DEWT_112024.nc | 19-Jan-2026 18:31 | 603786 | ||
| SISW1_TS_DEWT_112025.nc | 19-Jan-2026 18:36 | 1142964 | ||
| SISW1_TS_DEWT_122018.nc | 19-Jan-2026 17:58 | 993234 | ||
| SISW1_TS_DEWT_122019.nc | 19-Jan-2026 18:04 | 995435 | ||
| SISW1_TS_DEWT_122020.nc | 19-Jan-2026 18:11 | 995286 | ||
| SISW1_TS_DEWT_122021.nc | 19-Jan-2026 18:14 | 994745 | ||
| SISW1_TS_DEWT_122022.nc | 19-Jan-2026 18:20 | 995448 | ||
| SISW1_TS_DEWT_122023.nc | 19-Jan-2026 18:27 | 995342 | ||
| SISW1_TS_DEWT_122024.nc | 19-Jan-2026 18:31 | 994719 | ||
| SISW1_TS_DEWT_122025.nc | 19-Jan-2026 18:36 | 993944 | ||